Flag for US Virgin Islands Weather past 2 weeks in Charlotte Amalie, US Virgin Islands

85 °F

Scattered clouds.

Feels Like: 94 °F
Forecast: 79 / 85 °F
Wind: 14 mph from Southeast

Location: Cyril E. King International Airport

Current Time: Nov 30, 2015 at 3:52:24 PM

Latest Report: Nov 30, 2015 at 2:53 PM

Visibility: 10 mi

Pressure: 29.88 "Hg

Humidity: 75%

Dew point: 76 °F

Location of Charlotte AmalieLocation

Historic Weather in Charlotte Amalie — Graph


Charlotte Amalie temperature yesterday

Maximum temperature yesterday: 85 °F (at 1:53 PM)
Minimum temperature yesterday: 76 °F (at 12:53 AM)
Average temperature yesterday: 80 °F

Past Weeks' High & Low Weather Summary

High87 °F (Nov 16, 9:53 AM)100% (Nov 28, 4:44 AM)30.01 "Hg (Nov 28, 4:44 AM)
Low73 °F (Nov 22, 12:53 AM)48% (Nov 20, 10:53 AM)29.85 "Hg (Nov 20, 2:53 PM)
Average80 °F80%29.93 "Hg
* Reported Nov 15 1:53 PM — Nov 30 1:53 PM, Charlotte Amalie, Weather by CustomWeather, © 2015

Note: Actual official high and low records may vary slightly from our data, if they occured in-between our weather recording intervals... More about our weather records


Charlotte Amalie weather history for previous 24 hours

Time TempWeatherWind HumidityBarometerVisibility
1:53 PM
Mon, Nov 30
85 °FScattered clouds.13 mph75%29.91 "Hg10 mi
12:53 PM85 °FPassing clouds.14 mph75%29.93 "Hg10 mi
11:53 AM85 °FSunny.14 mph75%29.96 "Hg10 mi
10:53 AM85 °FPassing clouds.14 mph75%29.97 "Hg10 mi
9:53 AM83 °FScattered clouds.20 mph77%29.97 "Hg10 mi
8:53 AM83 °FScattered clouds.16 mph77%29.95 "Hg10 mi
8:28 AM82 °FScattered clouds.16 mph77%29.94 "Hg10 mi
8:13 AM82 °FPartly sunny.17 mph79%29.93 "Hg10 mi
7:53 AM82 °FPassing clouds.15 mph79%29.92 "Hg10 mi
7:11 AM81 °FScattered clouds.15 mph82%29.91 "Hg10 mi
6:53 AM81 °FBroken clouds.17 mph85%29.90 "Hg10 mi
6:40 AM81 °FBroken clouds.18 mph82%29.89 "Hg10 mi
5:53 AM80 °FPartly cloudy.14 mph85%29.88 "Hg10 mi
4:53 AM81 °FPartly cloudy.16 mph82%29.87 "Hg10 mi
3:53 AM81 °FPassing clouds.17 mph82%29.86 "Hg10 mi
2:53 AM81 °FPassing clouds.18 mph79%29.87 "Hg10 mi
1:53 AM80 °FPassing clouds.17 mph85%29.90 "Hg10 mi
12:53 AM79 °FPassing clouds.10 mph88%29.93 "Hg10 mi
11:53 PM
Sun, Nov 29
78 °FClear.8 mph87%29.94 "Hg10 mi
10:53 PM77 °FClear.10 mph90%29.96 "Hg10 mi
9:53 PM78 °FMostly cloudy.5 mph90%29.95 "Hg10 mi
8:53 PM80 °FPassing clouds.8 mph79%29.95 "Hg10 mi
7:53 PM79 °FPassing clouds.7 mph82%29.93 "Hg10 mi
6:53 PM82 °FPassing clouds.12 mph72%29.92 "Hg10 mi
5:53 PM82 °FClear.10 mph74%29.91 "Hg10 mi
4:53 PM82 °FPassing clouds.15 mph77%29.90 "Hg10 mi
4:38 PM82 °FScattered clouds.13 mph74%29.89 "Hg10 mi
4:26 PM82 °FPartly sunny.12 mph74%29.89 "Hg10 mi
3:53 PM83 °FScattered clouds.10 mph72%29.88 "Hg10 mi
Weather by CustomWeather, © 2015

See weather overviewHow to use our weather pages